Temp
79 80 80 81 79 79 76 75 75 72 74 73 75 72 74 74 74 74 76 75 74 76 74 73 73 73 74 75 77 78 76 77 75 71 70 68 70 69 71 71 72 76 71
75 78 79 79 78 77 76 73 73 72 73 72 71 73 74 76 73 77 77 76 74 75 76 75 74 72 73 73 75 75 75 74 75 71 68 65 66 68 70 70 71 74 72
74 75 77 78 77 76 75 74 72 73 73 74 72 72 73 72 70 72 75 76 77 77 75 76 74 71 71 71 73 75 74 69 70 68 67 63 61 64 66 68 69 71 70
75 72 77 76 76 77 78 77 73 73 74 74 72 71 71 68 71 73 74 78 77 78 78 77 75 72 72 73 74 77 73 68 68 68 70 66 65 62 61 66 67 69 69
75 73 73 75 77 78 78 77 74 72 73 73 73 71 70 70 72 72 74 74 75 78 79 78 77 75 73 73 75 76 73 67 66 66 68 68 67 66 64 63 68 68 68
72 72 72 74 74 77 77 76 73 71 73 73 73 72 72 72 71 71 71 73 74 75 77 79 76 75 74 74 75 75 74 67 68 69 68 69 68 67 65 64 65 65 67
71 73 71 71 72 75 76 76 72 71 73 73 73 73 72 72 72 71 73 72 73 73 75 76 75 74 75 76 76 75 75 73 72 70 70 71 69 67 66 65 64 64 67
73 73 74 71 72 75 73 76 71 71 72 73 73 73 73 71 71 72 72 73 73 74 76 76 76 77 77 77 76 75 75 74 74 74 73 72 71 68 68 67 65 64 65
71 73 75 74 73 71 73 75 72 71 72 73 73 73 73 73 72 74 74 72 75 79 75 77 76 77 77 77 76 74 74 75 74 74 74 75 75 72 70 70 68 68 64
74 73 73 72 73 73 74 75 73 73 74 73 73 74 73 73 74 74 73 74 74 75 75 75 76 76 77 77 75 74 75 75 74 75 75 75 75 77 74 71 71 71 71
74 73 74 73 72 72 71 74 73 72 72 73 73 73 73 74 75 74 74 74 74 74 75 75 76 76 76 76 74 74 75 75 74 75 75 75 75 74 74 74 73 72 72
74 73 74 73 70 71 70 70 70 73 72 74 73 73 74 74 74 74 74 74 73 73 74 75 75 75 77 77 77 75 76 75 74 74 74 75 79 74 73 73 72 71 71
70 71 74 71 69 69 69 69 70 70 70 69 71 73 73 73 73 73 73 74 74 73 74 74 74 74 75 75 75 75 75 75 75 76 78 77 74 73 72 72 71 71 73
68 69 68 68 66 67 67 68 69 70 69 69 69 71 73 73 74 74 74 74 74 74 74 74 73 74 75 74 74 74 74 74 75 75 79 76 77 74 73 73 71 71 71
67 69 68 65 66 67 68 68 68 68 68 68 69 69 71 72 73 73 74 74 74 73 73 74 74 74 73 72 70 71 72 71 72 73 73 72 71 71 72 73 71 71 70
68 69 68 67 67 67 67 67 68 68 69 69 68 68 69 70 72 73 73 73 73 73 73 73 71 71 69 64 66 69 71 73 71 70 71 69 68 69 68 69 70 71 70
64 64 68 66 67 67 66 65 66 68 69 67 68 67 68 68 67 70 72 72 72 72 71 70 68 64 63 63 64 68 71 71 70 69 70 68 68 68 70 68 68 67 67
62 62 65 66 67 67 67 66 66 66 66 66 65 66 66 65 66 67 68 68 69 69 67 64 62 62 63 61 62 66 70 69 69 67 65 63 63 63 69 69 68 67 66
60 60 62 63 66 65 65 64 64 64 63 63 64 64 64 64 64 65 66 68 67 66 63 62 61 60 59 59 61 67 67 65 64 65 64 62 63 61 65 67 66 65 64
58 58 59 60 61 64 64 62 62 62 61 61 61 62 63 62 63 64 64 64 63 62 61 60 60 59 58 58 57 65 62 60 59 61 61 61 61 59 61 64 63 63 62
57 58 57 56 57 62 62 61 61 59 61 60 59 59 60 61 63 64 62 61 60 59 59 58 57 57 55 55 56 57 64 64 63 62 61 61 58 56 56 59 61 60 59
57 58 56 55 57 58 59 57 57 59 59 57 57 57 58 61 64 63 62 60 59 58 58 58 57 57 56 53 54 55 57 60 58 58 59 60 55 54 56 59 58 59 61
55 55 54 54 56 57 58 56 56 58 58 56 56 56 57 59 59 58 58 62 61 59 57 56 55 53 53 51 51 52 55 57 58 56 56 55 54 56 59 57 59 60 59
51 51 51 51 51 55 56 56 58 58 58 58 57 56 56 56 56 56 55 56 55 60 57 56 52 52 52 51 53 50 50 55 57 58 63 60 59 58 59 59 58 59 59
51 51 50 50 50 52 54 57 57 59 58 57 56 57 55 53 51 50 48 52 50 53 56 55 52 52 52 52 49 49 55 53 51 56 63 61 59 57 55 55 54 55 55
50 50 49 49 50 51 52 53 57 59 57 56 57 57 56 53 54 48 51 48 47 46 45 47 51 49 48 46 45 44 44 45 48 58 57 55 55 54 54 52 53 53 53
MSLP
1014.09 1014.75 1015.50 1016.31 1016.69 1017.12 1017.56 1017.87 1018.37 1018.68 1018.74 1018.91 1019.21 1019.42 1019.73 1019.88 1020.11 1020.01 1019.89 1020.02 1020.32 1020.03 1020.09 1019.99 1020.23 1020.22 1020.15 1020.26 1019.96 1019.64 1019.84 1019.84 1019.74 1021.25 1022.36 1022.93 1022.37 1021.63 1021.24 1020.46 1019.61 1018.27 1019.09
1014.62 1014.94 1015.51 1016.05 1016.56 1016.89 1017.45 1018.04 1018.18 1018.65 1018.69 1018.99 1019.34 1019.34 1019.43 1019.76 1019.86 1019.78 1019.90 1020.02 1020.26 1020.21 1020.23 1020.22 1020.45 1020.49 1020.55 1020.43 1020.18 1020.13 1020.46 1020.85 1020.47 1020.70 1021.70 1023.03 1022.99 1022.60 1021.85 1021.16 1019.58 1018.18 1018.90
1014.41 1015.15 1015.46 1015.87 1016.42 1016.81 1017.25 1018.02 1018.18 1018.62 1018.90 1019.10 1019.47 1019.52 1019.66 1020.05 1020.44 1020.26 1020.05 1019.99 1020.26 1020.20 1020.36 1020.10 1020.46 1020.78 1020.68 1020.89 1020.59 1020.46 1020.48 1021.47 1021.59 1020.93 1021.24 1022.67 1023.73 1023.78 1022.84 1022.08 1021.06 1019.70 1020.14
1014.54 1014.91 1015.52 1015.90 1016.31 1016.66 1016.99 1017.67 1018.17 1018.49 1018.82 1019.02 1019.62 1019.65 1020.06 1020.54 1020.52 1020.25 1020.08 1019.98 1020.05 1019.96 1020.00 1020.23 1020.52 1020.72 1020.67 1020.88 1020.58 1020.46 1020.94 1021.05 1021.66 1022.02 1021.82 1021.75 1022.33 1023.42 1024.20 1023.16 1021.93 1021.67 1022.04
1014.49 1014.83 1015.50 1015.95 1016.23 1016.65 1017.03 1017.68 1018.04 1018.35 1018.69 1018.95 1019.30 1019.73 1020.14 1020.33 1020.26 1020.32 1020.27 1020.23 1020.13 1019.93 1020.04 1020.19 1020.45 1020.70 1020.71 1020.74 1020.57 1020.57 1020.97 1021.30 1021.64 1021.64 1021.73 1021.75 1021.79 1022.27 1023.02 1022.93 1022.53 1022.50 1022.25
1014.78 1014.94 1015.26 1015.86 1016.24 1016.75 1017.24 1017.65 1018.22 1018.38 1018.41 1018.76 1019.05 1019.53 1019.90 1020.06 1020.24 1020.46 1020.43 1020.30 1020.38 1020.24 1020.08 1020.15 1020.29 1020.41 1020.60 1020.79 1020.65 1020.62 1021.03 1021.65 1021.26 1020.90 1020.42 1020.52 1021.64 1022.15 1022.82 1022.85 1022.41 1022.28 1021.41
1014.43 1014.60 1015.13 1015.81 1016.12 1016.44 1017.06 1017.48 1017.89 1018.44 1018.41 1018.78 1019.00 1019.22 1019.52 1019.85 1020.04 1020.17 1020.18 1020.32 1020.31 1020.23 1020.18 1020.14 1020.26 1020.30 1020.34 1020.57 1020.63 1020.78 1021.01 1021.02 1021.27 1020.81 1020.94 1020.92 1021.20 1021.84 1022.46 1022.60 1022.85 1022.72 1022.21
1013.87 1014.17 1014.71 1015.30 1015.78 1016.24 1016.70 1017.32 1017.71 1018.30 1018.55 1018.55 1018.88 1019.06 1019.27 1019.53 1019.74 1020.04 1020.03 1020.00 1019.90 1019.85 1019.58 1019.92 1020.13 1020.18 1020.30 1020.37 1020.57 1020.72 1020.86 1020.91 1021.01 1020.92 1021.08 1021.17 1021.22 1021.62 1021.79 1022.18 1022.60 1022.99 1022.61
1013.53 1014.01 1013.98 1014.44 1015.40 1015.94 1016.24 1016.76 1017.31 1017.85 1018.36 1018.59 1018.59 1018.81 1018.91 1019.28 1019.61 1019.60 1019.92 1019.92 1019.73 1019.54 1019.57 1019.68 1019.88 1019.97 1020.11 1020.19 1020.31 1020.72 1020.77 1020.82 1020.86 1020.92 1021.02 1021.17 1021.10 1021.23 1021.37 1021.47 1021.85 1022.03 1022.32
1012.71 1013.22 1013.68 1014.34 1014.80 1015.37 1015.73 1016.42 1016.88 1017.40 1017.79 1018.25 1018.41 1018.49 1018.67 1018.86 1019.09 1019.40 1019.45 1019.55 1019.55 1019.36 1019.39 1019.65 1019.72 1019.96 1020.06 1020.21 1020.32 1020.61 1020.54 1020.54 1020.73 1020.74 1020.68 1020.70 1020.89 1021.00 1020.99 1021.05 1020.97 1021.12 1021.16
1011.10 1012.22 1013.06 1013.66 1014.36 1015.11 1015.58 1016.13 1016.69 1017.32 1017.75 1017.98 1018.27 1018.45 1018.53 1018.63 1018.72 1018.95 1019.27 1019.25 1019.35 1019.34 1019.52 1019.57 1019.77 1020.00 1020.05 1020.10 1020.39 1020.43 1020.47 1020.51 1020.61 1020.61 1020.57 1020.69 1020.75 1020.63 1020.48 1020.47 1020.47 1020.52 1020.50
1010.66 1011.42 1012.24 1013.46 1014.34 1015.11 1015.88 1015.87 1016.40 1017.18 1017.57 1017.71 1017.97 1018.36 1018.43 1018.58 1018.62 1018.58 1018.67 1018.99 1019.26 1019.13 1019.29 1019.55 1019.74 1019.86 1020.07 1020.10 1020.27 1020.48 1020.57 1020.68 1020.65 1020.59 1020.67 1020.45 1020.44 1020.53 1020.40 1020.45 1020.63 1020.64 1020.67
1011.42 1011.67 1012.45 1013.37 1014.09 1014.92 1015.50 1015.86 1016.20 1016.61 1017.08 1017.42 1017.86 1018.18 1018.38 1018.60 1018.70 1018.53 1018.47 1018.61 1018.96 1019.15 1019.24 1019.47 1019.67 1019.90 1020.05 1020.16 1020.25 1020.42 1020.57 1020.61 1020.60 1020.48 1020.36 1020.31 1020.44 1020.39 1020.52 1020.58 1020.57 1020.64 1020.69
1011.39 1011.89 1012.64 1013.29 1013.96 1014.54 1015.17 1015.51 1015.78 1016.31 1016.94 1017.20 1017.59 1017.97 1017.98 1018.10 1018.28 1018.26 1018.36 1018.47 1018.63 1018.92 1019.14 1019.29 1019.53 1019.77 1019.93 1020.18 1020.32 1020.44 1020.53 1020.51 1020.57 1020.51 1020.17 1020.16 1020.25 1020.20 1020.28 1020.50 1020.67 1020.72 1020.88
1011.14 1011.96 1012.77 1013.92 1014.30 1014.72 1015.13 1015.28 1016.07 1016.35 1016.74 1017.18 1017.32 1017.72 1017.74 1017.89 1017.83 1017.83 1017.99 1018.18 1018.49 1018.72 1018.78 1019.10 1019.31 1019.66 1019.95 1020.20 1020.38 1020.50 1020.52 1020.47 1020.51 1020.33 1020.33 1020.36 1020.48 1020.43 1020.29 1020.42 1020.63 1020.80 1021.12
1012.43 1011.88 1013.31 1013.86 1014.37 1014.60 1014.80 1015.59 1015.98 1016.32 1016.72 1016.82 1017.12 1017.54 1017.82 1018.15 1017.75 1017.63 1017.77 1018.02 1018.19 1018.54 1018.86 1018.95 1019.28 1019.79 1020.11 1020.46 1020.45 1020.47 1020.28 1020.00 1020.30 1020.48 1020.57 1020.80 1020.63 1020.67 1020.65 1020.36 1020.37 1020.72 1021.10
1013.54 1013.45 1014.34 1014.57 1014.97 1015.06 1015.38 1016.10 1016.11 1016.08 1016.42 1017.01 1017.33 1017.71 1017.95 1018.52 1018.33 1018.29 1017.92 1018.01 1018.28 1018.44 1018.87 1019.34 1019.62 1020.00 1020.34 1020.48 1020.32 1020.33 1020.29 1020.20 1020.40 1020.68 1020.95 1021.15 1021.19 1020.72 1020.81 1020.86 1021.02 1021.23 1021.28
1015.82 1016.23 1014.72 1015.34 1015.88 1015.95 1016.27 1016.33 1016.78 1017.00 1016.93 1016.94 1017.79 1018.58 1018.83 1018.77 1018.66 1018.58 1018.67 1018.53 1018.51 1018.70 1019.26 1019.73 1020.18 1020.53 1020.75 1020.52 1020.38 1020.27 1020.34 1020.45 1020.85 1021.15 1021.26 1021.25 1021.37 1021.42 1021.20 1021.08 1021.30 1021.58 1021.66
1016.32 1016.33 1015.80 1016.29 1014.99 1015.86 1016.87 1017.44 1017.73 1018.14 1018.24 1018.62 1019.35 1019.09 1018.90 1019.08 1019.36 1019.44 1019.20 1018.65 1018.80 1019.20 1019.84 1020.41 1020.64 1021.03 1020.97 1020.45 1020.10 1020.31 1020.64 1020.97 1021.27 1021.65 1021.54 1021.60 1021.86 1021.76 1021.29 1021.46 1021.87 1022.08 1021.88
1017.41 1017.35 1017.28 1017.18 1017.05 1017.86 1017.73 1017.83 1018.17 1018.88 1019.26 1019.49 1019.72 1019.60 1019.41 1019.59 1019.66 1019.57 1019.68 1019.62 1019.88 1020.26 1020.71 1021.13 1021.44 1021.73 1021.61 1021.10 1020.68 1020.57 1020.92 1021.47 1021.88 1022.05 1022.05 1022.09 1022.29 1022.41 1022.25 1022.16 1022.23 1022.36 1022.46
1018.04 1017.84 1017.38 1017.89 1018.34 1018.47 1018.80 1019.03 1018.82 1018.89 1019.24 1019.56 1019.84 1019.98 1019.95 1019.85 1019.84 1019.82 1020.21 1020.54 1020.84 1021.28 1021.55 1021.74 1021.28 1021.93 1022.29 1022.40 1021.33 1021.14 1021.57 1021.37 1021.86 1022.19 1022.51 1022.76 1022.73 1022.74 1022.71 1022.52 1022.70 1022.65 1022.58
1018.67 1018.26 1018.37 1018.08 1018.88 1018.68 1018.73 1019.47 1019.52 1019.86 1020.18 1020.16 1020.36 1020.38 1020.60 1020.44 1020.35 1020.46 1020.88 1021.39 1021.52 1021.91 1022.49 1022.16 1022.42 1022.90 1023.04 1022.91 1022.75 1022.26 1022.38 1021.82 1021.99 1022.50 1022.70 1022.93 1023.02 1022.88 1022.84 1022.70 1022.87 1022.66 1022.60
1019.78 1019.95 1019.94 1019.85 1019.79 1019.51 1019.42 1019.45 1019.84 1019.79 1020.33 1020.44 1020.90 1021.43 1021.46 1021.39 1021.37 1021.50 1021.68 1021.69 1021.99 1022.51 1022.93 1023.02 1023.04 1023.54 1023.49 1023.37 1023.26 1023.23 1023.22 1022.63 1022.43 1022.39 1022.70 1022.83 1023.02 1023.18 1023.43 1023.61 1023.41 1023.22 1023.37
1020.15 1020.44 1020.49 1020.56 1020.61 1020.34 1020.21 1020.06 1020.49 1020.61 1020.43 1020.56 1021.17 1021.49 1021.59 1021.76 1021.96 1022.19 1022.32 1022.50 1022.65 1023.00 1023.32 1023.63 1023.77 1023.89 1024.08 1023.94 1023.97 1023.69 1023.74 1023.09 1022.87 1022.61 1022.27 1022.79 1023.26 1023.71 1024.17 1024.32 1024.48 1024.33 1024.44
1020.67 1020.91 1021.21 1021.27 1021.26 1021.14 1021.03 1020.74 1021.03 1021.27 1021.18 1021.32 1021.77 1021.73 1022.37 1022.38 1022.80 1023.22 1023.36 1023.39 1023.51 1023.58 1023.56 1023.88 1024.00 1024.27 1024.35 1024.35 1024.33 1024.51 1024.16 1023.84 1023.84 1023.55 1023.21 1023.52 1023.97 1024.59 1025.23 1025.47 1025.53 1025.55 1025.60
1020.98 1021.46 1021.92 1022.10 1021.98 1021.79 1021.61 1021.40 1021.34 1021.42 1021.81 1022.00 1022.23 1022.40 1022.73 1023.10 1023.17 1023.39 1024.30 1024.13 1023.85 1023.58 1023.89 1023.91 1023.75 1024.44 1024.62 1024.65 1024.43 1024.59 1024.21 1024.06 1023.85 1023.97 1024.24 1024.78 1025.08 1025.61 1026.07 1026.26 1026.33 1026.33 1026.35
Wind_Speed
13 15 17 16 14 10 8 8 8 6 4 2 3 3 3 3 2 4 6 6 5 3 2 4 3 2 5 4 4 3 5 5 4 7 9 7 8 7 2 3 6 7 7
13 14 14 13 15 14 11 7 8 7 4 3 2 2 2 3 2 2 4 5 5 4 1 2 1 5 3 6 5 5 3 5 8 3 3 3 2 6 7 6 5 4 6
18 14 14 13 12 13 12 9 9 7 6 4 3 3 4 4 3 2 1 2 5 6 5 3 3 4 2 3 3 4 5 4 6 7 5 3 2 1 4 7 8 4 2
13 9 13 11 12 12 13 12 8 8 6 7 4 5 4 4 3 4 2 1 3 4 5 3 3 2 2 4 3 4 4 4 2 2 5 3 5 4 2 4 6 5 4
15 13 8 8 10 10 12 8 8 8 6 6 6 5 4 2 2 2 4 3 3 5 3 5 4 4 3 3 4 5 5 4 4 3 3 2 2 4 1 2 3 2 5
7 11 7 8 7 7 9 8 7 7 8 6 5 7 7 5 3 3 3 3 3 3 4 4 3 3 3 3 3 3 5 6 3 2 3 2 3 1 0 1 2 1 4
10 12 10 7 7 10 9 9 8 7 8 8 7 7 7 6 6 5 4 4 3 3 5 3 3 2 1 2 2 3 2 2 4 3 1 2 1 3 2 2 0 2 2
9 11 11 8 7 9 9 10 8 7 7 8 8 6 6 4 4 5 4 4 3 4 4 4 5 4 3 2 2 2 1 2 4 5 4 3 3 4 4 4 3 1 2
10 11 12 11 8 8 11 12 11 8 7 7 6 6 6 6 5 7 5 4 4 5 6 6 6 4 3 3 3 3 2 2 3 3 4 3 2 3 3 3 4 4 2
13 10 11 11 11 8 9 11 11 12 10 8 7 7 6 6 6 5 6 6 4 4 6 6 6 6 5 5 4 2 1 3 1 2 3 1 2 4 4 3 3 4 4
18 15 13 13 12 9 8 11 10 9 8 7 6 6 6 6 6 5 5 5 4 4 4 5 6 6 6 5 4 3 2 0 2 1 1 1 1 2 3 3 3 3 3
15 15 15 12 13 13 10 9 8 9 4 4 6 6 6 5 6 6 7 6 6 5 6 5 5 5 4 6 6 5 3 4 4 4 3 4 1 2 2 3 3 2 2
6 10 12 12 13 11 10 10 9 8 8 6 2 5 6 6 7 6 6 6 6 6 6 6 5 5 6 4 4 6 6 5 5 5 6 6 1 3 2 1 2 2 2
9 9 8 9 11 10 9 9 8 6 4 5 3 4 7 8 7 7 6 6 6 6 6 6 7 6 5 4 3 4 4 3 3 1 2 4 1 2 3 3 0 2 2
15 11 11 7 10 12 8 6 6 6 5 6 3 2 5 6 6 7 7 6 6 5 6 6 6 4 4 2 2 3 3 6 4 5 4 6 6 5 4 4 2 1 2
9 11 6 9 10 11 10 4 7 6 4 3 3 1 4 6 6 6 6 6 6 6 5 5 5 5 4 3 1 1 4 6 7 6 5 4 5 6 6 4 4 4 3
13 16 7 1 5 7 5 4 4 5 5 5 5 7 7 5 3 3 2 6 6 5 3 5 5 6 4 2 2 3 3 3 5 6 6 4 3 4 5 7 10 11 10
10 8 6 10 4 3 6 10 9 9 8 9 7 6 3 5 5 3 5 4 2 3 4 5 6 4 2 4 1 3 4 6 6 5 5 6 5 3 3 6 6 6 4
7 8 7 4 13 9 10 10 9 8 10 9 5 2 4 6 5 3 2 2 5 7 7 6 7 5 6 11 2 7 5 7 7 4 5 6 6 6 7 7 6 5 5
5 5 7 8 9 4 9 11 10 9 8 7 5 4 5 5 5 5 6 7 8 8 7 8 8 10 9 14 14 6 6 8 5 5 6 7 7 7 7 6 5 6 3
6 5 9 9 6 8 10 9 9 9 7 6 5 5 5 5 5 7 7 8 9 9 10 8 10 10 10 12 17 15 1 6 6 4 4 3 6 8 7 7 4 2 1
5 7 7 9 7 8 11 10 10 7 6 6 6 6 6 5 5 8 7 7 8 9 4 8 7 5 6 13 14 16 12 8 5 4 3 3 8 9 8 6 7 10 7
5 5 5 6 5 6 7 11 5 7 6 7 7 6 6 7 8 7 5 5 5 5 4 4 5 4 4 5 13 13 10 9 3 2 1 3 10 12 11 14 14 11 7
5 4 6 6 6 7 7 7 5 4 6 8 8 6 7 7 7 5 5 5 4 4 4 3 3 2 2 3 3 3 4 8 6 6 11 13 15 15 10 9 10 8 8
5 5 5 4 5 4 5 5 5 4 6 6 5 7 4 6 7 7 4 4 3 1 3 3 3 2 2 2 2 4 2 2 2 4 7 8 8 8 6 6 6 6 6
5 5 4 4 3 3 3 3 3 4 5 5 4 4 3 3 5 5 4 8 7 9 10 8 4 3 6 3 3 4 4 0 3 5 7 7 7 7 5 5 6 7 9
Wind_Direction
155 153 152 164 158 158 147 151 144 168 149 122 98 95 157 161 150 176 176 178 185 170 25 64 13 16 56 10 334 352 26 27 7 113 89 63 39 35 45 286 247 91 61
149 150 154 151 160 159 158 154 155 160 136 107 131 156 151 107 142 169 184 172 167 174 143 149 22 32 27 23 9 35 29 32 10 72 121 160 341 3 5 325 357 39 79
156 161 159 158 154 159 160 162 161 165 148 128 98 67 62 51 36 338 223 170 168 171 160 156 86 54 73 38 358 24 63 91 41 24 130 84 98 320 328 313 311 9 13
151 151 167 159 163 169 164 166 164 156 170 147 132 146 144 150 198 188 224 178 203 198 145 169 138 112 60 37 26 35 68 102 96 54 36 28 142 159 238 281 293 338 320
161 160 163 178 167 162 168 171 159 156 164 160 157 163 149 189 184 188 180 192 211 236 209 182 168 133 85 58 34 42 75 68 111 146 177 161 76 94 193 198 270 253 206
154 139 132 145 156 155 162 160 165 181 161 167 181 184 177 180 156 197 187 206 193 198 212 199 158 147 84 58 23 54 75 115 130 199 101 154 119 119 9 72 279 187 324
163 151 156 162 165 167 175 171 164 195 175 178 187 185 186 192 206 194 191 205 195 213 214 181 181 158 187 149 133 75 55 139 143 151 182 299 206 142 127 81 19 10 317
178 171 170 155 167 183 164 177 169 196 198 175 192 193 188 185 190 208 206 212 215 224 214 193 194 186 194 198 140 113 31 77 96 111 158 202 216 175 176 155 142 306 315
178 181 175 173 156 163 175 181 177 183 190 200 181 193 194 188 198 193 193 206 228 228 220 195 195 202 201 182 150 99 55 91 117 106 104 148 131 183 206 174 176 162 183
178 183 179 178 168 178 176 181 177 188 197 192 189 186 193 199 196 204 190 207 235 226 193 186 184 184 203 189 158 143 18 59 100 145 100 62 147 160 169 189 216 194 189
183 182 190 184 165 184 162 179 174 179 190 190 190 189 197 203 203 194 183 198 204 178 189 194 191 193 203 183 168 155 172 352 294 342 1 321 147 56 35 57 22 33 53
185 179 180 165 159 171 170 152 153 161 153 192 178 209 207 199 206 213 198 190 186 201 196 202 211 212 216 190 175 186 167 196 249 276 282 272 248 133 108 71 54 28 60
180 164 183 168 162 161 161 160 161 158 149 112 79 226 209 202 214 215 219 199 178 183 200 199 186 192 192 188 214 199 196 205 228 238 227 236 239 168 176 142 106 68 41
151 172 191 163 164 166 171 173 177 177 129 126 124 273 222 203 210 209 210 209 200 189 191 185 182 187 163 137 139 204 217 209 229 244 360 86 282 184 176 143 151 36 44
156 173 176 161 165 174 183 202 99 112 163 161 157 296 287 233 221 198 201 211 202 209 203 195 204 165 134 98 148 214 221 221 132 79 67 55 40 32 149 146 154 111 57
38 129 126 164 173 189 198 189 129 138 155 176 200 187 332 304 226 216 197 196 194 210 200 214 155 132 95 12 355 171 208 211 161 137 116 109 57 35 15 106 140 140 146
58 29 327 149 224 186 137 104 82 51 124 73 37 25 36 351 13 311 211 185 201 168 164 120 115 99 93 13 345 299 206 172 133 143 130 83 25 49 71 81 81 69 53
88 91 30 54 43 86 95 89 80 70 79 85 48 39 47 30 11 43 9 322 251 146 109 99 91 106 16 330 304 210 108 90 85 92 108 117 93 38 93 98 97 68 38
108 110 108 84 83 87 100 94 87 91 91 98 116 84 82 57 38 53 299 41 95 100 98 100 88 75 38 12 339 149 113 96 89 95 94 97 75 20 80 95 95 63 17
57 67 80 74 75 79 111 114 118 117 108 103 102 92 90 101 78 62 62 66 83 90 87 91 74 63 47 22 28 104 124 113 110 92 81 74 99 64 58 84 100 80 16
70 57 78 73 67 89 105 95 91 78 72 75 78 61 57 73 69 84 77 81 83 85 93 88 73 58 37 21 40 33 97 129 118 100 86 58 60 72 68 79 64 81 3
66 67 63 75 61 79 96 90 83 87 95 87 69 68 47 30 57 85 89 83 104 104 77 89 79 56 37 36 30 47 37 55 93 86 69 38 22 40 56 70 74 70 80
61 34 52 77 67 72 95 103 109 110 112 98 93 68 66 61 46 63 61 93 103 110 102 77 75 59 31 29 33 32 31 38 64 67 70 46 64 56 59 46 47 50 49
89 70 75 69 47 34 47 76 78 84 97 101 95 80 80 71 59 58 55 66 56 101 112 99 99 104 85 45 40 61 359 8 26 16 77 79 88 76 59 46 39 47 52
101 91 84 88 97 86 80 77 73 68 82 82 85 91 75 79 82 56 35 91 81 30 128 112 128 90 23 84 27 335 42 67 12 336 71 77 73 67 58 52 48 51 45
101 96 102 112 111 94 86 71 73 108 114 111 104 106 110 112 119 107 79 49 59 66 64 70 109 71 70 0 16 299 342 137 185 74 74 74 73 72 66 64 67 52 52